| time (UTC) | temp F | wind direction | speed MPH | gust MPH | rain 1hr in | rain 24hr in | rain mn in | humidity % | barometer mb |
| 20260502205337 | 72 | 115 | 6.0 | 0.0 | 0.00 | 0.00 | 0.00 | 22 | 1016.7 |
| 20260502204340 | 72 | 356 | 5.0 | 0.0 | 0.00 | 0.00 | 0.00 | 24 | 1016.8 |
| 20260502203329 | 71 | 352 | 4.0 | 0.0 | 0.00 | 0.00 | 0.00 | 23 | 1017.2 |
| 20260502202353 | 72 | 12 | 2.0 | 0.0 | 0.00 | 0.00 | 0.00 | 23 | 1017.2 |
| 20260502201335 | 71 | 252 | 4.0 | 0.0 | 0.00 | 0.00 | 0.00 | 23 | 1017.5 |
| 20260502200339 | 70 | 290 | 4.0 | 0.0 | 0.00 | 0.00 | 0.00 | 24 | 1017.6 |
| 20260502195348 | 71 | 271 | 3.0 | 0.0 | 0.00 | 0.00 | 0.00 | 24 | 1017.5 |
| 20260502194332 | 70 | 50 | 4.0 | 0.0 | 0.00 | 0.00 | 0.00 | 24 | 1017.7 |
| 20260502193356 | 70 | 326 | 4.0 | 0.0 | 0.00 | 0.00 | 0.00 | 25 | 1017.8 |
| 20260502192339 | 69 | 302 | 5.0 | 0.0 | 0.00 | 0.00 | 0.00 | 25 | 1018.3 |
| 20260502191326 | 69 | 353 | 7.0 | 0.0 | 0.00 | 0.00 | 0.00 | 25 | 1018.4 |
| 20260502190334 | 69 | 330 | 4.0 | 0.0 | 0.00 | 0.00 | 0.00 | 27 | 1018.4 |
| 20260502185339 | 68 | 264 | 3.0 | 0.0 | 0.00 | 0.00 | 0.00 | 27 | 1018.9 |
| 20260502184342 | 67 | 356 | 4.0 | 0.0 | 0.00 | 0.00 | 0.00 | 26 | 1018.6 |
| 20260502183327 | 67 | 311 | 5.0 | 0.0 | 0.00 | 0.00 | 0.00 | 29 | 1018.5 |
| 20260502182335 | 67 | 294 | 4.0 | 0.0 | 0.00 | 0.00 | 0.00 | 29 | 1018.7 |
| 20260502181338 | 65 | 349 | 5.0 | 0.0 | 0.00 | 0.00 | 0.00 | 29 | 1019.2 |
| 20260502180325 | 65 | 303 | 5.0 | 0.0 | 0.00 | 0.00 | 0.00 | 31 | 1019.2 |
| 20260502170333 | 61 | 320 | 2.0 | 0.0 | 0.00 | 0.00 | 0.00 | 34 | 1019.3 |
| 20260502164326 | 60 | 299 | 2.0 | 0.0 | 0.00 | 0.00 | 0.00 | 38 | 1019.7 |
| 20260502163330 | 59 | 314 | 2.0 | 0.0 | 0.00 | 0.00 | 0.00 | 38 | 1019.8 |
| 20260502162337 | 58 | 357 | 1.0 | 0.0 | 0.00 | 0.00 | 0.00 | 41 | 1020.1 |
| 20260502161326 | 56 | 77 | 1.0 | 0.0 | 0.00 | 0.00 | 0.00 | 45 | 1020.5 |
| 20260502160350 | 54 | 40 | 2.0 | 0.0 | 0.00 | 0.00 | 0.00 | 47 | 1020.1 |
| 20260502152326 | 50 | 90 | 3.0 | 0.0 | 0.00 | 0.00 | 0.00 | 53 | 1020.3 |
| 20260502151329 | 49 | 117 | 3.0 | 0.0 | 0.00 | 0.00 | 0.00 | 53 | 1020.8 |
| 20260502150334 | 48 | 94 | 3.0 | 0.0 | 0.00 | 0.00 | 0.00 | 58 | 1020.8 |
| 20260502130343 | 34 | 77 | 2.0 | 0.0 | 0.00 | 0.00 | 0.00 | 77 | 1020.9 |
| 20260502123339 | 32 | 123 | 2.0 | 0.0 | 0.00 | 0.00 | 0.00 | 76 | 1020.6 |
| 20260502122327 | 32 | 91 | 2.0 | 0.0 | 0.00 | 0.00 | 0.00 | 76 | 1020.6 |
| 20260502121331 | 32 | 109 | 2.0 | 0.0 | 0.00 | 0.00 | 0.00 | 76 | 1020.5 |
| 20260502120336 | 32 | 113 | 3.0 | 0.0 | 0.00 | 0.00 | 0.00 | 75 | 1020.6 |
| 20260502115330 | 31 | 93 | 3.0 | 0.0 | 0.00 | 0.00 | 0.00 | 74 | 1020.6 |
| 20260502114334 | 31 | 73 | 3.0 | 0.0 | 0.00 | 0.00 | 0.00 | 72 | 1020.6 |
| 20260502113358 | 33 | 91 | 1.0 | 0.0 | 0.00 | 0.00 | 0.00 | 72 | 1020.1 |
| 20260502112326 | 34 | 111 | 2.0 | 0.0 | 0.00 | 0.00 | 0.00 | 72 | 1020.6 |
| 20260502111331 | 34 | 111 | 2.0 | 0.0 | 0.00 | 0.00 | 0.00 | 72 | 1020.6 |
| 20260502110355 | 34 | 110 | 2.0 | 0.0 | 0.00 | 0.00 | 0.00 | 71 | 1020.6 |
| 20260502105336 | 34 | 107 | 2.0 | 0.0 | 0.00 | 0.00 | 0.00 | 71 | 1020.5 |
| 20260502104400 | 34 | 123 | 2.0 | 0.0 | 0.00 | 0.00 | 0.00 | 70 | 1020.4 |
| 20260502103327 | 36 | 128 | 3.0 | 0.0 | 0.00 | 0.00 | 0.00 | 70 | 1020.2 |
| 20260502102331 | 36 | 117 | 2.0 | 0.0 | 0.00 | 0.00 | 0.00 | 70 | 1020.1 |
| 20260502101335 | 35 | 102 | 2.0 | 0.0 | 0.00 | 0.00 | 0.00 | 70 | 1020.4 |
| 20260502100339 | 35 | 99 | 2.0 | 0.0 | 0.00 | 0.00 | 0.00 | 70 | 1020.4 |
| 20260502091326 | 35 | 101 | 3.0 | 0.0 | 0.00 | 0.00 | 0.00 | 67 | 1020.1 |
| 20260502090330 | 36 | 92 | 4.0 | 0.0 | 0.00 | 0.00 | 0.00 | 66 | 1019.8 |
| 20260502071327 | 40 | 95 | 2.0 | 0.0 | 0.00 | 0.00 | 0.00 | 60 | 1019.5 |
| 20260502070336 | 42 | 94 | 1.0 | 0.0 | 0.00 | 0.00 | 0.00 | 59 | 1019.1 |
| 20260502065401 | 42 | 95 | 1.0 | 0.0 | 0.00 | 0.00 | 0.00 | 59 | 1019.6 |
| 20260502064344 | 42 | 95 | 2.0 | 0.0 | 0.00 | 0.00 | 0.00 | 58 | 1019.5 |
| 20260502063347 | 43 | 90 | 1.0 | 0.0 | 0.00 | 0.00 | 0.00 | 57 | 1019.2 |
| 20260502062334 | 43 | 46 | 4.0 | 0.0 | 0.00 | 0.00 | 0.00 | 57 | 1019.0 |
| 20260502061340 | 43 | 190 | 1.0 | 0.0 | 0.00 | 0.00 | 0.00 | 57 | 1019.0 |
| 20260502060344 | 43 | 116 | 5.0 | 0.0 | 0.00 | 0.00 | 0.00 | 56 | 1018.9 |
| 20260502055329 | 45 | 216 | 1.0 | 0.0 | 0.00 | 0.00 | 0.00 | 51 | 1019.3 |
| 20260502054337 | 48 | 143 | 6.0 | 0.0 | 0.00 | 0.00 | 0.00 | 49 | 1018.5 |
| 20260502053342 | 48 | 159 | 7.0 | 0.0 | 0.00 | 0.00 | 0.00 | 49 | 1018.6 |
| 20260502052347 | 48 | 129 | 6.0 | 0.0 | 0.00 | 0.00 | 0.00 | 47 | 1018.6 |
| 20260502051332 | 48 | 111 | 6.0 | 0.0 | 0.00 | 0.00 | 0.00 | 46 | 1018.7 |
| 20260502050336 | 49 | 114 | 7.0 | 0.0 | 0.00 | 0.00 | 0.00 | 45 | 1018.6 |
| 20260502045344 | 48 | 113 | 5.0 | 0.0 | 0.00 | 0.00 | 0.00 | 47 | 1018.6 |
| 20260502044327 | 48 | 121 | 4.0 | 0.0 | 0.00 | 0.00 | 0.00 | 47 | 1018.7 |
| 20260502043352 | 47 | 115 | 3.0 | 0.0 | 0.00 | 0.00 | 0.00 | 47 | 1018.6 |
| 20260502042333 | 49 | 92 | 3.0 | 0.0 | 0.00 | 0.00 | 0.00 | 44 | 1019.2 |
| 20260502041340 | 50 | 78 | 3.0 | 0.0 | 0.00 | 0.00 | 0.00 | 42 | 1019.1 |
| 20260502040323 | 52 | 58 | 4.0 | 0.0 | 0.00 | 0.00 | 0.00 | 40 | 1018.7 |
| 20260502035330 | 54 | 124 | 5.0 | 0.0 | 0.00 | 0.00 | 0.00 | 37 | 1018.8 |
| 20260502034335 | 55 | 116 | 5.0 | 0.0 | 0.00 | 0.00 | 0.00 | 36 | 1018.5 |
| 20260502033343 | 55 | 132 | 6.0 | 0.0 | 0.00 | 0.00 | 0.00 | 35 | 1018.4 |
| 20260502032327 | 53 | 134 | 4.0 | 0.0 | 0.00 | 0.00 | 0.00 | 40 | 1018.5 |
| 20260502031331 | 55 | 135 | 4.0 | 0.0 | 0.00 | 0.00 | 0.00 | 38 | 1018.1 |
| 20260502030334 | 56 | 144 | 3.0 | 0.0 | 0.00 | 0.00 | 0.00 | 38 | 1019.1 |
| 20260502025339 | 57 | 165 | 3.0 | 0.0 | 0.00 | 0.00 | 0.00 | 36 | 1017.9 |
| 20260502024326 | 58 | 121 | 4.0 | 0.0 | 0.00 | 0.00 | 0.00 | 34 | 1017.7 |
| 20260502023330 | 60 | 144 | 5.0 | 0.0 | 0.00 | 0.00 | 0.00 | 33 | 1017.4 |
| 20260502022335 | 61 | 123 | 6.0 | 0.0 | 0.00 | 0.00 | 0.00 | 31 | 1017.9 |
| 20260502021400 | 63 | 122 | 5.0 | 0.0 | 0.00 | 0.00 | 0.00 | 30 | 1017.6 |
| 20260502020347 | 64 | 115 | 8.0 | 0.0 | 0.00 | 0.00 | 0.00 | 28 | 1018.5 |
| 20260502015333 | 65 | 96 | 8.0 | 0.0 | 0.00 | 0.00 | 0.00 | 28 | 1017.7 |
| 20260502014337 | 66 | 90 | 8.0 | 0.0 | 0.00 | 0.00 | 0.00 | 27 | 1017.4 |
| 20260502013341 | 66 | 107 | 9.0 | 0.0 | 0.00 | 0.00 | 0.00 | 26 | 1017.4 |
| 20260502012329 | 67 | 93 | 10.0 | 0.0 | 0.00 | 0.00 | 0.00 | 26 | 1017.5 |
| 20260502011333 | 68 | 96 | 8.0 | 0.0 | 0.00 | 0.00 | 0.00 | 25 | 1018.1 |
| 20260502010337 | 69 | 100 | 7.0 | 0.0 | 0.00 | 0.00 | 0.00 | 22 | 1019.0 |
| 20260502005402 | 69 | 106 | 7.0 | 0.0 | 0.00 | 0.00 | 0.00 | 21 | 1017.5 |
| 20260502004331 | 69 | 127 | 8.0 | 0.0 | 0.00 | 0.00 | 0.00 | 20 | 1017.5 |
| 20260502003335 | 70 | 152 | 5.0 | 0.0 | 0.00 | 0.00 | 0.00 | 20 | 1018.4 |
| 20260502002340 | 70 | 121 | 6.0 | 0.0 | 0.00 | 0.00 | 0.00 | 20 | 1017.6 |
| 20260502001344 | 69 | 88 | 6.0 | 0.0 | 0.00 | 0.00 | 0.00 | 21 | 1017.6 |
| 20260502000332 | 70 | 89 | 4.0 | 0.0 | 0.00 | 0.00 | 0.00 | 18 | 1017.7 |
| 20260501235335 | 70 | 120 | 5.0 | 0.0 | 0.00 | 0.00 | 0.00 | 18 | 1017.7 |
| 20260501234337 | 70 | 116 | 5.0 | 0.0 | 0.00 | 0.00 | 0.00 | 18 | 1017.8 |
| 20260501233323 | 70 | 136 | 4.0 | 0.0 | 0.00 | 0.00 | 0.00 | 19 | 1017.8 |
| 20260501232333 | 71 | 132 | 3.0 | 0.0 | 0.00 | 0.00 | 0.00 | 18 | 1018.3 |
| 20260501231357 | 71 | 168 | 4.0 | 0.0 | 0.00 | 0.00 | 0.00 | 17 | 1018.5 |
| 20260501230339 | 70 | 176 | 4.0 | 0.0 | 0.00 | 0.00 | 0.00 | 17 | 1018.7 |
| 20260501225402 | 70 | 225 | 5.0 | 0.0 | 0.00 | 0.00 | 0.00 | 18 | 1018.7 |
| 20260501224345 | 70 | 115 | 6.0 | 0.0 | 0.00 | 0.00 | 0.00 | 19 | 1018.8 |
| 20260501223349 | 71 | 190 | 5.0 | 0.0 | 0.00 | 0.00 | 0.00 | 20 | 1018.9 |
| 20260501222336 | 70 | 193 | 4.0 | 0.0 | 0.00 | 0.00 | 0.00 | 19 | 1019.0 |
| 20260501221400 | 70 | 209 | 5.0 | 0.0 | 0.00 | 0.00 | 0.00 | 20 | 1019.2 |
| 20260501220326 | 70 | 190 | 5.0 | 0.0 | 0.00 | 0.00 | 0.00 | 21 | 1019.2 |
| 20260501215351 | 70 | 165 | 4.0 | 0.0 | 0.00 | 0.00 | 0.00 | 22 | 1019.3 |
| 20260501214338 | 69 | 135 | 5.0 | 0.0 | 0.00 | 0.00 | 0.00 | 22 | 1019.5 |
| 20260501213341 | 69 | 171 | 5.0 | 0.0 | 0.00 | 0.00 | 0.00 | 22 | 1019.7 |
| 20260501212344 | 68 | 129 | 4.0 | 0.0 | 0.00 | 0.00 | 0.00 | 24 | 1020.1 |
| 20260501211328 | 69 | 245 | 5.0 | 0.0 | 0.00 | 0.00 | 0.00 | 23 | 1020.0 |
| 20260501210336 | 69 | 165 | 4.0 | 0.0 | 0.00 | 0.00 | 0.00 | 23 | 1020.0 |